Theta_e
299 299 299 299 299 298 299 299 299 300 300 299 300 299 299 299 299 298 295 297 296 296 295 295 295 295 295 297 296 297 297 298 298 298 298 298 299 300 302 301 301 301 301 302 302 302 302 303 303 304 304 304 304 305 305 306 305 305 305 305 305 305 304 303 300 300 303 306 304 304 300 298 297 295 296 294 293 294 293 293 293 293 293 293 292
298 298 298 298 297 297 297 297 297 297 297 296 296 296 295 296 295 294 294 294 294 294 294 294 294 295 295 294 295 294 294 296 294 296 296 296 297 300 300 299 299 299 299 299 300 300 300 300 301 301 302 302 302 302 302 302 301 301 300 300 301 301 301 302 300 299 299 303 301 296 298 295 299 293 296 295 295 293 292 292 292 291 291 291 291
298 298 297 297 296 295 295 294 294 294 294 294 293 293 293 292 291 291 292 292 293 294 294 294 294 293 292 293 293 292 292 291 291 292 293 294 296 297 297 297 297 297 296 297 297 298 298 298 298 299 300 299 299 299 299 298 299 298 298 298 298 299 298 299 299 297 297 298 301 300 301 296 296 296 294 293 293 292 290 290 290 290 289 289 289
296 296 295 295 294 294 294 293 293 293 293 292 291 290 290 290 290 292 292 292 293 293 292 292 291 291 290 290 290 290 290 289 289 290 291 291 293 295 295 296 296 295 295 296 296 296 296 295 296 296 295 295 295 295 295 295 295 295 295 296 296 297 297 297 297 298 297 296 299 298 296 296 297 293 292 290 289 290 289 288 288 288 288 288 288
294 294 293 293 292 292 292 291 291 291 291 290 290 290 290 291 291 290 291 291 290 290 291 289 289 290 292 290 291 290 290 290 290 289 289 289 290 292 294 295 295 295 295 295 293 295 294 294 294 294 293 293 293 293 294 293 294 294 294 295 295 295 296 296 296 296 295 295 296 298 297 294 293 290 289 290 289 288 287 286 287 286 286 287 287
293 293 291 291 291 291 290 290 290 290 290 290 290 290 290 289 289 289 288 289 287 288 288 288 288 289 288 289 289 289 289 288 288 288 288 288 288 289 290 291 292 293 293 293 294 294 293 293 293 293 292 292 292 293 293 293 293 293 293 294 294 294 294 294 294 294 294 294 295 295 296 295 294 293 289 289 289 289 287 285 285 285 285 285 286
291 291 291 290 290 290 290 290 290 289 289 289 289 289 288 287 286 287 286 286 286 287 287 286 287 287 288 288 289 290 290 288 289 289 288 287 287 288 288 289 289 290 291 291 292 292 292 292 292 292 292 292 292 292 292 292 292 292 293 293 294 293 293 293 293 293 293 293 293 294 294 295 294 292 290 287 288 288 287 286 285 285 284 285 284
291 291 290 290 290 289 289 288 288 289 287 287 287 287 286 285 285 285 285 286 286 285 286 287 287 286 288 288 290 290 289 289 289 288 287 287 288 287 287 288 288 288 288 289 289 290 290 291 291 291 292 292 292 292 292 292 292 292 293 293 293 292 292 292 292 292 292 292 292 292 293 293 293 289 284 285 284 284 285 285 286 287 284 284 285
290 290 289 289 288 287 288 288 288 287 286 286 285 285 285 284 284 284 284 285 287 285 286 286 287 288 288 288 289 289 290 291 291 291 290 289 288 288 288 288 287 287 287 287 288 288 288 289 289 289 290 289 290 290 291 291 292 291 292 292 291 291 291 291 291 291 291 291 291 292 291 291 291 291 289 286 284 287 288 285 285 286 284 283 284
289 289 288 288 287 286 287 286 286 285 285 285 285 284 284 284 284 284 285 285 285 286 286 286 286 287 287 288 288 289 290 291 290 292 292 290 288 287 287 286 286 286 286 286 287 287 288 288 289 288 288 288 289 289 291 291 291 291 291 291 291 290 290 289 290 290 290 289 290 290 289 290 291 291 290 290 288 287 286 285 284 285 282 283 283
287 287 287 286 286 285 285 286 285 285 285 284 284 284 285 285 285 285 285 285 285 285 285 286 286 286 286 286 287 288 289 290 290 293 293 294 290 287 286 286 285 285 285 286 286 287 287 287 288 288 288 288 289 290 291 291 291 291 291 291 291 290 289 289 289 289 289 289 290 289 289 289 290 291 290 290 289 287 287 286 285 284 281 280 279
286 286 285 285 285 285 285 284 284 284 284 284 284 284 284 284 284 284 284 284 285 284 284 284 284 285 285 284 285 286 287 289 291 292 293 293 292 288 286 286 286 285 285 285 286 286 287 287 287 288 288 288 289 289 289 290 291 291 291 291 291 291 292 290 289 288 288 288 288 289 289 289 290 290 290 289 289 287 286 286 285 284 282 282 282
285 285 284 284 283 284 283 284 283 283 283 283 283 283 283 283 283 283 283 283 282 283 283 283 283 284 284 283 284 284 284 288 290 291 291 292 292 290 287 286 285 285 285 285 285 286 286 287 287 288 289 288 288 288 288 288 289 290 290 290 290 291 292 293 292 290 290 289 288 288 289 290 289 289 290 289 289 288 287 285 284 284 284 283 283
285 284 284 283 283 283 283 283 283 282 282 282 282 282 282 282 281 282 282 282 281 282 281 282 282 282 283 283 283 283 283 286 290 290 291 291 291 291 286 286 285 285 285 285 285 286 286 286 286 287 288 287 287 287 288 288 289 289 290 290 290 290 290 291 291 290 290 290 289 288 290 291 289 290 290 290 288 288 287 286 285 284 283 283 285
284 284 283 282 282 282 282 282 282 281 281 281 281 281 280 280 280 281 281 280 281 282 282 282 282 282 282 282 282 283 284 288 289 290 290 291 291 290 286 285 284 284 284 284 285 285 286 286 286 286 287 287 288 288 287 288 288 288 288 288 289 290 290 290 290 290 290 290 290 289 290 291 290 290 290 290 289 289 289 288 287 286 285 285 283
283 282 282 281 281 281 281 281 280 280 280 280 279 279 279 279 279 280 280 280 279 280 280 279 281 281 281 281 282 282 282 287 288 289 289 290 291 287 284 283 283 283 284 284 284 285 285 285 286 286 287 287 288 290 290 288 287 287 287 287 288 288 289 289 291 291 290 290 290 290 289 290 291 290 289 289 289 288 288 288 286 285 283 281 279
281 281 281 281 281 280 280 280 279 279 278 278 277 277 278 278 278 279 279 279 279 280 280 280 281 281 281 281 281 281 282 284 287 288 289 290 289 284 283 283 283 283 283 284 284 284 284 285 285 286 286 286 288 290 291 290 287 287 287 287 287 288 288 288 290 291 291 291 292 292 293 293 293 294 294 294 291 290 287 285 284 284 282 279 279
280 280 280 280 280 279 279 278 277 277 275 275 276 276 277 277 277 279 278 279 279 279 280 281 281 280 281 281 280 280 282 284 286 288 289 289 288 285 284 283 283 283 283 284 284 284 284 285 285 285 285 286 288 290 291 289 287 287 286 286 286 287 287 288 288 288 290 290 291 291 291 292 292 292 293 293 292 291 287 283 285 284 281 281 279
279 279 279 279 279 279 278 277 276 275 275 275 275 275 275 276 278 278 278 277 278 279 280 280 280 279 278 280 281 281 281 283 286 287 288 289 287 284 283 282 282 283 283 283 284 284 284 284 285 285 286 286 289 290 291 289 287 287 286 286 286 286 287 287 287 287 287 287 287 287 287 288 288 288 288 289 290 289 288 287 286 284 282 282 281
279 279 279 280 280 279 277 275 274 274 273 273 274 274 275 276 276 276 276 277 277 278 278 278 278 279 279 279 280 281 281 282 283 287 288 288 288 286 284 283 282 282 283 283 283 283 284 284 285 287 288 289 289 290 290 290 288 287 287 286 286 286 288 287 287 287 286 286 286 287 287 287 287 287 287 286 286 286 287 287 287 286 284 282 281
279 279 279 279 278 276 275 274 273 273 272 273 274 274 274 274 275 274 275 276 275 276 276 277 278 278 280 279 280 280 281 281 282 286 287 287 288 287 284 283 283 283 282 283 283 283 283 284 284 286 288 288 288 288 288 289 288 287 287 287 287 288 289 287 287 287 287 286 286 286 286 286 286 287 286 286 286 286 286 287 286 286 285 283 280
278 278 278 277 275 273 273 273 273 273 273 273 271 272 272 272 273 274 273 274 275 275 275 277 277 278 279 279 279 280 281 281 281 284 285 286 287 287 284 283 284 284 283 283 283 283 283 283 283 285 287 287 287 288 288 288 288 286 286 288 289 289 288 287 288 287 287 286 286 286 286 286 286 286 286 286 286 286 286 286 286 286 286 285 283
276 276 275 274 273 272 272 272 272 272 271 272 270 271 272 272 272 273 274 274 274 274 275 276 276 277 277 278 278 279 279 280 282 281 283 284 285 285 286 285 286 285 283 282 282 283 284 284 284 285 286 287 287 287 287 287 287 286 287 288 287 288 287 287 286 286 286 286 285 285 285 285 285 285 284 283 276 277 277 277 277 278 277 277 278
272 272 272 271 271 271 272 271 271 271 271 271 271 271 271 271 270 272 273 273 273 274 274 275 275 275 275 276 277 278 278 279 280 281 281 283 283 284 284 285 285 283 282 282 282 282 282 283 283 285 285 286 286 286 287 286 285 287 287 287 286 286 285 285 285 285 285 285 284 284 284 285 284 284 280 275 273 272 271 271 271 272 273 272 273
271 270 270 270 270 270 269 270 271 270 270 270 271 271 271 271 271 272 272 272 272 272 273 274 273 274 274 274 275 276 277 277 277 279 281 281 282 283 283 283 283 283 281 281 281 281 283 284 285 285 285 285 286 286 286 286 286 286 286 286 285 285 285 284 284 284 283 283 284 284 284 284 282 277 273 271 270 270 269 269 269 268 269 269 268
269 269 269 269 269 268 269 269 270 270 269 270 270 269 270 271 270 271 270 270 270 271 271 272 272 272 273 273 274 274 275 276 276 277 278 279 279 280 281 282 282 282 282 281 282 283 284 284 284 284 285 285 285 284 284 285 285 286 286 285 285 285 285 284 284 283 283 283 284 283 284 276 270 271 271 271 271 270 269 268 269 269 270 270 268
270 269 268 269 268 268 269 270 269 269 267 267 268 268 269 268 268 269 269 269 269 270 270 271 271 271 272 272 273 273 274 274 275 276 276 277 277 279 280 280 281 281 281 282 282 282 283 283 284 284 284 285 285 285 285 285 285 285 285 285 285 285 285 285 284 284 284 283 283 284 275 270 270 269 270 271 270 270 270 271 270 269 269 269 267
267 266 267 267 269 268 268 271 269 267 268 268 268 268 267 267 267 268 268 268 269 269 270 270 270 271 271 272 272 272 273 273 274 274 275 277 278 279 279 279 279 279 280 280 281 281 281 282 283 283 283 283 283 283 284 284 284 284 285 285 285 285 285 285 285 285 285 285 283 273 270 269 269 270 270 271 270 270 271 271 270 268 268 268 266
267 265 267 268 267 269 267 265 266 266 266 267 266 267 268 267 268 267 268 268 267 269 270 271 272 272 272 272 272 271 272 272 274 278 278 280 278 278 277 277 278 278 279 281 280 280 281 280 280 280 281 281 281 282 282 283 283 284 284 284 285 285 285 284 283 284 284 283 279 274 271 269 270 270 271 270 270 270 271 270 270 268 269 269 266
265 265 267 266 265 265 264 264 264 265 265 265 266 265 272 273 272 270 268 274 276 277 276 273 273 273 273 273 273 272 272 274 279 280 279 279 280 280 280 280 280 279 280 281 280 278 278 279 279 279 279 280 280 280 281 281 282 282 283 284 284 284 284 284 284 284 284 282 280 274 271 270 270 270 270 270 269 270 270 270 269 269 268 266 265
265 266 266 263 265 264 264 264 264 263 265 265 265 266 265 266 271 273 274 274 274 275 275 276 277 277 275 273 274 277 278 278 278 278 278 278 279 279 279 280 280 280 281 279 277 277 277 277 278 278 278 278 279 280 281 281 282 282 283 283 284 284 283 283 284 284 282 280 276 274 272 271 271 270 270 269 269 269 269 270 269 269 268 267 265
263 263 263 262 264 265 264 264 263 264 264 264 264 264 263 263 264 269 272 271 272 273 274 275 275 275 276 275 273 272 274 276 277 277 277 277 277 278 278 279 279 280 280 280 275 275 275 275 275 276 277 278 279 280 281 281 282 282 282 282 282 283 283 283 284 283 281 278 275 273 272 271 271 270 270 269 269 268 268 268 268 268 267 267 266
260 259 261 263 263 264 264 263 263 263 262 262 262 262 262 262 262 262 265 269 270 271 272 273 273 273 274 274 274 274 274 275 276 276 276 276 277 277 277 278 279 279 278 274 273 273 274 275 275 277 278 278 279 280 281 281 282 282 282 282 282 283 283 284 284 282 279 277 275 273 272 272 271 270 269 269 268 268 268 268 268 267 267 265 264
258 259 261 261 261 261 261 261 261 261 261 261 260 261 261 262 261 262 262 263 265 267 270 270 271 272 272 273 273 274 274 274 275 275 275 275 276 276 277 275 277 277 275 272 272 273 274 274 275 276 277 278 279 279 279 280 281 281 281 281 282 282 283 284 282 280 278 276 275 273 272 271 270 269 268 268 268 268 268 268 267 266 265 264 263
257 261 264 264 261 260 261 261 260 260 260 259 259 260 260 261 262 262 262 262 262 262 263 265 268 270 269 270 272 273 273 274 274 274 274 275 275 276 276 271 269 270 271 272 272 273 273 273 274 275 276 277 277 277 277 278 279 280 280 281 281 282 282 281 279 279 277 275 274 273 272 271 270 270 269 268 267 267 267 267 267 266 265 264 263
258 259 260 261 260 260 259 259 260 259 259 258 259 260 261 261 261 262 262 262 262 262 262 263 264 267 269 270 271 272 273 273 273 274 274 274 274 275 269 267 268 269 270 270 271 272 273 273 274 276 276 275 276 277 278 278 279 280 280 280 281 281 281 281 279 277 276 275 273 273 272 270 270 269 269 269 268 268 268 267 267 266 266 264 263
258 258 260 259 258 259 259 258 258 259 262 261 261 259 260 260 261 261 261 261 262 262 262 262 263 264 266 266 267 269 271 272 272 273 273 273 273 270 268 268 268 269 269 270 271 272 272 274 275 274 275 275 275 275 275 276 277 278 280 280 281 281 281 281 279 277 275 274 273 272 271 270 270 269 269 268 268 268 267 267 266 265 265 264 263
257 257 256 257 257 257 257 257 258 262 260 260 259 260 259 259 260 260 261 261 262 262 261 261 263 262 262 263 266 266 266 269 270 270 270 270 268 267 268 268 269 269 269 270 272 272 272 273 273 272 271 271 271 272 273 275 276 277 278 279 280 280 280 280 279 276 274 273 272 271 270 270 270 269 269 268 268 267 267 266 266 265 264 264 263
257 261 262 263 262 257 256 258 259 259 258 260 259 260 260 260 259 259 259 260 260 260 261 261 261 262 262 263 263 265 266 264 264 264 264 265 266 267 267 268 268 268 269 268 268 268 269 268 268 268 268 269 270 272 273 274 275 277 278 279 279 280 279 278 276 275 273 273 272 271 270 270 269 269 269 268 268 267 267 266 265 264 263 263 263
257 257 260 262 260 260 260 260 259 258 259 258 257 258 259 259 258 259 259 259 260 260 261 261 261 261 262 263 263 265 264 263 263 263 264 264 265 266 266 266 266 265 266 266 266 266 266 266 266 266 267 269 270 270 272 274 275 276 277 278 278 278 278 276 274 273 273 273 272 270 270 269 269 269 269 268 268 267 266 266 265 264 264 263 263
256 257 260 261 261 259 259 259 258 258 257 258 258 257 257 259 259 260 259 260 260 260 261 261 261 261 263 264 266 266 264 263 263 263 264 264 264 264 264 265 265 265 265 265 265 264 264 264 265 265 266 267 268 269 271 272 272 274 276 276 276 276 275 273 273 272 272 272 271 270 270 269 269 269 268 268 268 268 267 266 265 264 264 263 262
255 257 257 258 260 258 258 258 258 261 259 259 258 258 258 259 259 259 260 260 260 261 260 260 261 261 263 265 265 266 264 263 263 263 263 263 263 263 264 264 264 264 264 264 264 263 263 263 264 264 265 265 266 267 269 270 271 272 273 274 274 273 272 272 271 271 271 271 270 270 269 269 269 269 268 268 267 267 266 265 265 264 263 262 260
256 256 256 258 257 257 257 257 257 256 256 257 257 260 260 260 259 259 259 260 260 260 260 260 260 261 262 264 264 264 262 262 262 262 262 262 262 262 262 263 263 263 264 264 264 263 263 263 263 263 263 264 265 266 267 268 269 270 271 272 272 272 271 271 270 270 270 270 269 269 269 269 269 268 267 267 267 266 265 264 264 263 262 261 260
256 257 257 258 257 257 258 257 257 258 257 259 260 259 259 258 258 258 258 258 259 260 260 260 260 260 261 261 262 261 260 260 260 261 261 262 261 261 261 262 262 263 263 263 262 262 262 262 262 262 263 263 264 265 266 267 268 268 269 270 271 270 270 270 269 269 269 269 268 268 268 269 268 267 266 266 266 265 264 264 263 263 262 261 260
254 255 256 255 256 255 255 257 257 257 258 258 256 257 258 257 257 257 258 258 259 259 259 260 260 260 260 260 260 260 260 260 261 261 261 261 261 261 261 261 261 262 262 261 262 262 262 262 261 261 261 262 263 263 264 265 265 266 267 267 269 269 270 269 269 269 269 269 268 268 268 268 267 266 266 266 265 265 264 263 263 262 261 260 260
254 255 256 255 256 257 256 254 258 256 256 256 256 255 256 256 256 257 258 258 259 259 259 259 259 259 259 259 259 260 259 259 259 260 261 261 261 261 261 261 261 261 261 261 261 261 261 261 261 261 261 261 262 262 262 263 264 264 265 266 267 268 269 269 269 269 269 268 268 268 268 267 267 266 265 265 265 265 264 263 263 262 261 260 260
254 254 256 256 255 256 256 257 255 255 254 255 256 255 256 256 256 257 258 259 259 259 259 258 258 258 258 258 259 259 259 259 259 259 260 260 260 260 261 261 261 261 261 261 261 261 261 261 261 261 261 262 262 262 262 262 263 263 264 265 265 266 268 269 268 268 268 268 268 268 268 267 266 265 265 265 264 264 263 263 262 261 261 260 259
254 255 255 256 255 255 255 254 255 259 256 256 256 256 257 256 256 257 256 257 258 258 258 258 257 257 258 258 258 258 259 259 259 259 259 259 260 260 260 260 260 260 260 260 260 261 261 261 261 261 262 262 262 262 262 262 263 264 264 265 266 266 266 266 268 268 268 268 268 268 267 266 265 265 265 265 264 263 262 261 261 261 260 260 259
254 254 254 254 254 254 254 254 256 254 254 254 255 255 256 255 256 255 256 256 257 257 257 257 257 257 257 257 258 258 258 259 258 258 258 259 259 259 259 259 260 259 259 259 260 260 261 261 261 262 263 263 263 262 262 263 263 263 264 265 265 266 266 266 266 267 266 267 267 266 266 265 265 265 264 264 263 263 262 261 261 260 260 259 259
254 254 254 254 255 254 254 254 253 253 254 254 254 254 255 255 255 255 255 256 256 256 256 256 256 256 256 257 257 257 257 257 257 258 258 258 259 259 259 259 259 259 259 259 259 260 260 261 261 262 263 263 263 263 263 263 264 264 264 265 265 265 266 266 267 266 266 267 266 266 265 265 264 264 264 263 263 262 261 261 260 260 259 259 259
254 254 254 253 253 253 253 251 251 251 251 252 252 253 254 253 254 254 255 255 255 255 256 255 255 256 256 256 257 257 257 257 257 257 258 258 258 258 258 258 259 259 259 259 259 259 260 260 261 261 262 262 262 263 263 264 264 264 265 265 265 265 265 265 265 265 265 265 265 265 264 264 263 263 262 262 262 261 260 260 260 259 259 259 258
Wind_Speed
6 5 5 6 7 7 6 5 6 6 7 7 7 6 6 6 5 4 4 5 4 4 4 4 4 4 4 5 5 5 5 6 6 6 6 6 6 5 5 5 6 6 6 8 6 6 7 8 9 9 7 8 7 8 8 8 7 7 6 7 9 8 9 12 15 19 20 12 8 10 2 3 6 4 7 6 6 6 5 5 6 6 6 6 5
5 5 5 6 7 6 6 5 6 7 7 7 7 6 5 5 5 5 5 4 4 4 4 4 4 5 5 5 5 5 4 4 4 4 5 6 6 5 6 6 7 7 7 8 7 6 7 8 10 9 7 8 9 9 8 8 7 7 7 6 8 7 4 8 11 13 19 18 9 2 5 2 11 3 7 7 7 6 7 7 6 6 6 5 5
5 6 6 7 6 5 6 6 6 6 7 6 7 6 5 4 4 4 4 4 5 5 5 6 5 5 5 5 5 4 4 4 4 4 4 4 6 6 5 6 7 7 8 8 8 7 8 8 9 8 7 8 8 9 8 9 8 9 10 8 10 11 8 9 10 13 17 19 16 12 11 6 8 9 6 7 6 5 6 6 6 5 4 5 6
5 6 6 7 6 6 7 6 7 6 7 6 6 5 4 4 4 5 5 5 7 7 5 5 5 5 4 4 4 4 4 4 4 4 4 4 4 5 6 6 6 7 7 8 8 8 8 9 9 9 8 10 9 9 8 7 8 8 9 9 9 12 10 9 11 12 13 16 18 13 8 9 10 7 5 4 6 6 6 5 3 6 5 5 7
6 6 6 7 7 7 6 5 6 6 5 5 5 5 5 5 5 5 6 6 5 5 5 5 4 4 5 4 5 5 5 5 5 4 4 4 4 5 5 5 6 7 7 8 8 8 9 9 10 9 8 10 10 8 8 9 9 9 10 9 9 10 9 9 10 11 13 15 18 15 11 7 7 5 4 6 7 6 5 6 6 6 6 7 6
6 7 6 6 6 7 6 6 7 6 6 6 6 6 6 6 5 5 4 4 4 4 4 4 4 4 4 4 4 5 4 4 4 4 4 4 4 4 5 5 6 7 8 8 8 8 9 10 10 9 9 10 11 10 9 10 10 10 10 10 10 9 10 10 9 10 12 14 15 17 14 12 10 8 4 6 8 8 6 5 4 5 6 6 6
6 6 6 6 7 7 6 6 6 6 6 5 5 5 5 5 4 4 4 4 4 4 4 4 5 4 5 4 5 5 5 4 4 4 4 4 4 5 6 6 7 6 7 8 8 8 9 9 10 9 9 9 10 11 10 11 10 11 11 10 11 10 10 11 9 11 12 13 14 14 14 13 10 12 5 3 6 5 6 6 9 6 5 7 8
6 6 6 7 7 6 5 5 5 5 4 4 4 4 4 4 3 3 3 4 4 4 5 5 4 4 4 4 5 5 5 5 5 5 4 4 5 5 6 7 8 8 8 8 8 9 9 9 9 9 9 9 9 10 10 11 10 12 11 8 10 10 11 10 10 10 11 11 13 14 11 14 11 5 0 0 3 4 5 8 12 8 5 6 6
7 7 7 7 6 4 4 4 4 4 4 3 3 4 4 3 4 4 4 4 4 4 4 4 5 6 6 6 6 6 7 7 5 6 7 7 5 6 6 7 8 9 9 9 9 9 9 8 8 8 9 13 16 16 15 14 12 13 13 9 9 10 11 10 10 10 10 11 13 11 12 13 12 10 8 7 8 11 6 6 9 8 4 4 5
6 6 7 6 4 4 4 3 4 3 3 3 3 3 3 4 4 4 4 4 4 5 5 5 5 6 7 7 6 6 6 5 7 13 11 7 6 6 6 7 7 8 9 10 10 9 9 9 10 13 15 16 17 17 17 18 18 15 14 12 11 10 11 11 11 10 9 11 12 13 13 14 13 10 11 10 7 5 5 6 9 8 2 5 4
5 5 6 4 4 4 3 2 2 3 2 2 3 4 5 4 5 5 6 5 6 6 6 6 6 5 5 5 6 6 6 6 12 13 13 14 9 7 6 8 7 7 8 9 11 12 10 9 8 10 11 12 13 16 16 18 18 18 20 19 16 14 12 13 13 11 10 11 12 12 13 16 16 12 10 10 6 8 9 8 9 5 7 7 8
5 5 4 4 4 3 2 2 3 3 4 4 4 5 5 6 6 6 6 6 6 5 5 5 5 5 5 4 5 6 7 10 14 14 14 14 13 9 7 7 8 8 8 10 11 11 12 11 9 8 8 10 11 11 14 17 18 18 19 18 18 20 19 16 14 13 12 12 12 14 14 14 15 11 9 6 8 7 8 8 8 8 10 9 8
4 5 4 4 4 3 3 4 4 4 5 4 4 5 5 5 6 6 6 5 4 5 5 6 6 5 5 5 6 6 6 10 13 14 14 15 15 12 8 8 8 9 9 10 11 11 11 11 12 10 8 13 12 11 11 13 15 18 18 19 20 21 21 22 22 17 14 15 15 16 15 14 12 12 8 7 5 10 7 8 8 9 10 10 10
5 5 5 4 3 3 4 5 5 4 4 4 5 5 5 6 5 4 4 4 4 5 5 5 5 5 5 6 6 6 7 10 13 14 15 15 15 13 7 9 9 10 10 10 10 11 11 11 11 13 11 9 9 10 11 12 12 11 11 11 11 14 18 21 21 24 21 17 15 16 16 13 14 13 11 8 8 10 9 9 9 10 10 13 12
5 5 5 4 3 3 4 5 5 5 5 5 5 5 5 4 4 5 4 4 5 5 6 6 6 5 6 6 6 7 7 11 14 14 14 16 17 13 8 8 9 10 10 10 11 11 11 11 11 13 14 13 11 11 11 12 11 12 12 12 13 13 13 13 11 11 13 14 14 15 17 16 15 14 13 11 11 11 10 11 11 11 10 5 1
5 5 4 3 3 4 4 4 4 4 4 4 4 5 4 4 5 4 3 4 4 4 4 4 6 7 6 6 7 9 7 10 13 14 16 14 16 10 7 8 9 10 11 11 11 10 10 10 11 13 14 14 16 19 16 12 11 14 15 14 14 13 13 14 15 15 16 13 13 14 13 14 16 15 13 12 10 9 8 8 5 5 6 8 9
4 4 3 3 3 3 4 4 4 4 4 4 4 4 4 5 4 3 4 4 5 5 5 5 5 7 8 7 7 9 9 9 11 15 16 16 12 8 8 8 9 11 12 13 12 11 10 10 10 12 14 15 19 21 20 17 12 15 16 16 16 15 15 12 12 18 21 21 23 24 24 24 24 24 25 26 17 10 6 7 11 8 9 9 8
4 3 2 2 2 3 3 4 3 4 3 4 4 4 4 3 3 4 5 6 7 6 6 7 6 5 7 9 7 8 11 12 12 12 15 16 13 9 9 9 11 11 13 13 12 11 12 17 16 13 14 16 20 23 23 17 13 14 15 16 18 18 17 12 7 10 15 19 22 23 23 23 23 24 25 25 23 15 8 11 10 6 11 10 10
3 2 2 2 2 3 3 4 4 3 4 4 4 4 4 4 4 4 4 4 5 6 6 7 7 6 5 8 11 9 9 13 15 13 15 15 13 8 8 8 11 12 12 14 14 13 13 12 17 17 16 17 23 23 24 19 14 13 15 15 17 18 17 12 11 12 10 9 9 10 11 14 14 13 14 20 19 15 10 12 9 9 11 10 8
2 2 2 3 3 3 3 4 3 2 3 3 4 4 4 4 5 5 5 5 6 5 5 6 8 8 6 6 8 8 9 11 13 17 16 17 18 13 9 10 12 13 13 14 16 15 14 14 15 18 20 21 21 22 22 23 17 14 13 14 15 18 13 13 13 13 12 12 13 11 12 11 10 10 10 10 10 10 11 11 11 11 12 10 9
3 3 3 3 3 3 3 2 1 3 3 3 3 3 3 4 5 5 6 5 5 6 7 8 8 10 9 7 7 8 7 10 13 18 18 18 20 17 10 12 12 12 13 15 14 15 14 14 14 18 21 18 19 22 26 26 24 17 14 14 14 16 17 15 17 19 14 13 13 12 11 9 9 9 9 9 9 8 9 10 10 11 11 10 9
2 1 0 1 1 1 0 1 2 2 2 2 3 4 4 3 4 5 5 6 8 9 7 8 9 11 11 10 8 9 10 13 12 15 18 20 20 22 13 11 13 13 14 14 15 14 14 14 14 17 24 24 21 26 30 30 31 19 17 24 29 27 20 15 15 14 14 13 12 11 10 9 9 9 9 8 8 7 7 8 9 10 10 10 11
1 1 1 1 0 1 1 1 1 1 2 3 4 4 4 5 6 5 6 7 8 8 8 8 9 11 12 11 9 9 10 11 15 14 18 22 23 22 22 17 21 14 12 14 14 14 13 14 15 21 25 26 30 32 32 34 27 16 25 29 30 28 23 14 14 15 14 14 12 12 11 10 9 9 8 7 2 1 1 1 1 1 3 4 4
1 1 1 1 2 1 1 1 1 2 4 4 4 5 7 5 5 6 6 7 7 9 8 8 9 10 12 13 13 12 10 9 13 17 17 22 23 24 24 23 22 15 15 14 14 14 16 16 19 31 35 36 35 32 32 31 22 29 30 31 30 24 15 14 14 15 15 14 13 12 12 10 8 8 6 3 3 4 6 6 6 5 6 6 7
2 2 2 1 0 0 2 3 4 5 5 6 7 7 6 6 7 6 6 6 6 7 8 7 8 10 11 12 13 14 13 12 12 14 19 19 22 23 23 26 27 27 19 14 15 16 22 33 37 35 35 37 38 35 28 28 30 27 27 27 24 15 14 13 13 13 13 14 12 12 11 10 7 2 4 5 6 5 6 6 7 8 8 10 10
2 2 1 1 3 4 5 4 5 6 6 6 5 4 5 6 6 6 6 6 5 6 8 8 8 9 10 11 13 14 15 13 13 13 13 14 15 20 27 27 28 28 25 21 27 32 31 32 37 36 30 24 19 16 15 18 23 27 27 24 16 13 12 12 12 12 13 12 13 12 11 3 2 4 5 6 6 6 7 6 7 6 7 9 10
2 2 4 5 4 5 6 6 6 5 5 4 4 3 5 4 3 4 6 6 6 5 5 7 8 9 11 11 12 14 15 14 13 12 12 13 13 14 16 17 22 24 17 14 16 16 19 19 19 27 27 30 28 25 24 23 19 16 13 12 11 10 10 10 10 11 12 13 12 11 2 3 4 6 5 6 5 4 5 8 8 6 7 7 11
3 4 4 4 4 5 6 7 6 5 5 6 6 6 4 4 4 5 5 6 7 7 7 7 8 10 11 12 13 14 15 14 13 13 15 15 15 13 13 13 12 10 13 12 13 16 18 18 22 15 14 15 16 14 13 13 13 13 12 11 10 10 12 15 15 12 12 12 10 1 4 4 6 5 5 5 5 6 6 6 9 8 7 10 9
3 4 4 5 5 5 4 4 4 5 5 4 4 4 6 5 5 4 4 4 3 6 8 8 8 7 8 10 11 13 15 16 15 19 23 26 23 18 16 14 15 15 19 30 23 18 16 14 13 13 13 13 13 13 11 11 12 13 15 14 10 10 10 9 10 10 11 11 8 6 5 5 4 4 5 4 5 6 5 6 6 10 6 4 10
4 4 4 4 4 4 3 3 4 4 5 5 6 3 5 8 7 5 4 5 10 12 9 8 10 10 11 9 7 10 12 16 28 34 32 33 34 34 31 31 29 24 28 35 26 18 15 14 13 13 13 13 15 15 14 13 13 12 11 12 12 9 8 9 10 12 10 10 7 6 6 5 5 6 6 7 6 5 6 8 8 8 9 9 10
4 4 4 4 4 2 2 3 3 3 5 4 5 8 8 2 6 9 7 6 8 10 13 16 16 15 12 13 15 24 25 27 28 29 32 31 32 33 34 34 33 32 32 24 17 14 14 13 13 13 14 15 15 14 13 14 13 13 12 10 8 10 12 11 11 10 9 7 5 5 5 7 7 8 8 8 8 7 6 5 5 6 7 11 11
4 4 4 2 2 2 2 2 2 3 4 5 6 6 8 12 8 1 2 6 7 9 11 13 14 16 19 18 17 16 23 29 31 29 29 30 30 31 32 34 34 34 32 30 15 12 13 14 15 15 13 14 14 14 14 14 14 13 13 13 13 10 11 11 10 10 8 6 5 5 7 7 7 7 7 7 8 7 8 8 7 7 7 6 9
5 3 2 1 2 3 2 2 3 4 4 5 5 5 7 6 11 15 4 1 6 10 8 9 13 16 19 20 21 21 23 27 31 32 32 31 31 30 31 32 31 32 32 17 11 14 12 13 11 13 14 14 14 13 15 16 15 14 14 14 14 12 11 11 11 8 6 7 7 7 7 7 6 6 6 7 8 9 8 8 7 7 8 9 8
3 1 1 1 1 2 1 2 3 3 3 3 3 4 3 5 7 6 12 17 9 1 2 6 15 21 23 26 25 23 22 24 26 28 30 31 32 31 29 24 27 27 22 15 14 14 13 14 12 13 13 14 14 14 14 13 11 12 13 14 14 14 13 10 8 7 6 6 7 6 6 6 7 8 7 6 6 6 8 7 8 9 9 10 12
2 2 1 0 0 1 1 1 1 1 2 2 3 3 4 5 4 6 9 9 11 15 15 11 9 14 18 19 24 26 25 25 26 26 27 28 28 30 29 17 15 13 11 10 12 12 11 15 14 16 14 13 13 16 15 14 13 12 11 11 11 11 13 9 7 7 6 5 6 6 7 8 8 8 9 9 9 8 8 9 8 9 10 10 10
1 0 1 1 0 0 1 1 1 1 1 2 2 3 4 4 6 6 6 5 9 12 12 12 12 13 19 19 22 25 28 28 27 27 25 25 25 26 15 14 12 12 11 11 11 14 13 13 14 11 13 13 14 10 12 11 13 12 13 14 14 11 12 10 7 7 6 6 6 6 6 6 7 7 7 6 9 10 9 9 9 8 9 10 10
1 1 1 1 1 0 0 1 1 1 3 2 3 3 3 4 6 4 5 6 8 8 9 12 14 15 11 7 10 20 25 26 27 25 24 23 25 16 9 10 12 13 13 12 13 11 14 11 11 13 13 13 14 15 13 15 15 15 13 13 13 13 11 10 9 7 6 6 6 7 8 8 8 8 9 9 8 7 7 7 7 8 9 12 13
2 3 2 2 2 2 1 1 1 3 2 1 2 2 3 4 4 4 6 7 7 8 10 10 9 11 13 15 14 11 16 22 23 19 15 14 12 9 8 9 12 13 14 12 11 12 13 14 13 12 16 16 15 14 15 14 14 13 13 13 12 10 14 13 11 6 5 5 6 6 7 7 7 7 7 8 9 9 9 9 10 10 9 12 10
4 6 7 4 3 2 1 1 1 1 1 2 2 2 5 4 4 5 6 6 6 7 8 8 9 10 11 12 14 15 17 14 13 14 14 11 8 9 10 12 12 13 13 14 16 15 14 15 17 17 15 15 16 13 13 12 13 12 13 12 13 11 11 9 6 5 5 5 5 5 6 6 6 7 7 7 8 8 9 10 10 11 13 11 8
3 2 2 3 1 1 0 0 1 1 4 1 2 2 3 4 4 5 6 6 7 7 7 8 9 9 10 11 12 14 14 14 13 11 12 12 13 11 10 11 12 14 15 15 13 14 14 14 12 14 13 13 13 14 13 11 11 12 13 13 12 12 10 6 4 4 4 4 4 5 6 6 6 6 6 6 7 8 10 10 9 9 9 10 9
3 2 2 1 2 1 1 1 2 2 2 2 2 3 4 5 5 6 5 6 7 7 7 8 8 8 9 13 21 21 13 11 12 11 11 12 13 12 11 11 12 13 14 14 14 14 12 13 11 12 11 13 13 14 14 13 13 13 12 12 11 9 7 3 1 2 2 3 4 5 5 6 7 8 8 7 6 7 7 7 8 9 9 9 9
1 1 0 0 0 0 1 3 4 3 2 4 3 3 5 6 5 5 6 6 7 8 8 8 8 8 11 21 20 23 14 9 10 11 12 11 10 11 11 11 10 10 12 11 11 13 12 13 13 11 13 14 14 14 14 14 13 12 12 11 10 7 6 4 2 0 1 2 4 5 5 6 6 6 6 7 8 8 8 8 8 9 9 9 8
1 1 1 2 0 1 2 2 2 1 2 3 4 4 5 5 5 6 6 7 6 7 8 9 9 8 9 13 16 18 10 9 9 10 9 10 10 10 11 10 11 10 12 11 11 10 10 12 12 12 13 13 12 13 14 14 13 13 12 11 10 8 6 4 1 0 1 2 3 4 6 7 7 6 7 8 8 8 8 9 9 9 10 11 11
2 3 3 2 2 1 3 2 2 3 2 4 4 5 5 5 5 5 5 6 6 6 7 8 8 9 9 10 10 9 8 9 9 9 10 10 10 10 11 10 10 12 11 11 10 10 11 10 12 13 12 12 12 13 11 11 11 12 11 11 10 8 6 5 3 1 1 2 4 5 6 6 6 7 8 8 9 9 9 9 9 10 10 10 10
3 3 2 2 1 2 2 2 2 3 5 5 3 4 6 4 5 5 5 5 7 7 7 7 8 9 10 9 9 9 9 9 10 10 10 10 10 10 10 11 12 11 11 10 10 10 10 11 12 12 13 12 11 12 11 11 11 10 10 10 10 8 6 5 3 1 1 3 4 5 5 6 7 7 8 8 9 9 9 9 9 10 11 10 10
4 3 3 1 2 4 4 4 5 3 3 4 4 4 5 5 5 5 6 6 6 6 7 7 7 8 8 9 9 10 9 10 9 10 10 10 10 10 10 10 10 10 9 10 10 11 11 11 11 12 12 12 12 12 11 11 11 10 10 9 9 9 6 3 1 1 2 3 4 4 5 5 6 7 9 9 8 8 8 9 9 9 11 11 10
2 2 2 3 3 6 5 5 3 4 4 4 4 4 5 5 5 5 6 7 6 7 7 7 7 7 8 8 8 9 9 9 9 10 10 10 10 10 10 11 11 11 11 10 10 10 11 11 10 11 11 11 11 12 11 10 10 9 9 9 8 9 8 5 3 1 2 2 3 4 5 6 7 8 9 9 9 9 9 9 9 10 9 10 11
3 4 4 5 4 4 4 4 4 5 4 4 3 4 5 5 5 5 6 5 6 7 7 7 7 7 8 8 8 8 8 8 9 9 9 10 10 10 10 11 11 11 11 11 10 10 10 10 10 10 10 11 11 11 11 11 10 10 10 9 9 10 10 9 4 4 3 3 3 4 5 6 7 7 8 8 8 9 10 9 8 8 9 9 9
4 4 3 3 4 4 5 4 5 3 3 3 3 4 5 4 4 4 5 5 6 6 6 7 7 7 7 8 8 8 8 9 9 9 9 9 10 10 10 10 11 11 10 10 10 11 11 11 11 10 10 10 10 11 11 11 11 11 12 11 14 19 15 10 6 5 5 4 5 5 6 6 7 7 7 8 8 7 8 8 9 9 8 8 9
3 4 3 3 4 4 5 5 3 3 4 3 4 4 4 5 5 5 5 5 6 6 6 6 7 7 7 8 9 9 8 9 9 9 9 9 9 10 10 10 10 10 10 10 10 10 10 11 11 11 11 10 11 10 10 10 10 11 10 13 20 19 17 15 13 11 7 4 5 5 6 6 7 6 6 7 8 8 9 8 8 8 9 10 9
5 4 4 3 3 4 3 4 4 3 3 3 4 4 5 5 5 5 5 6 6 7 7 7 7 7 8 7 8 8 9 9 9 8 8 8 9 9 10 10 10 10 10 10 10 10 10 10 10 11 11 11 11 11 10 10 10 12 16 21 20 19 18 14 9 11 12 8 5 5 5 6 8 8 7 7 7 7 8 9 8 8 8 8 9
Wind_Direction
64 65 69 67 71 67 61 53 50 54 55 48 53 43 37 38 20 349 351 6 21 18 16 11 3 358 354 351 355 351 352 352 355 355 353 343 338 333 327 323 313 308 310 306 304 302 299 294 291 290 296 291 287 286 281 279 273 267 264 258 259 244 236 246 256 268 279 271 253 277 268 280 283 203 249 251 256 262 264 262 267 262 258 254 257
62 67 65 67 67 65 61 57 61 63 62 53 51 44 35 35 14 9 12 350 18 26 22 5 9 5 0 352 352 352 349 352 350 0 348 337 327 330 327 323 316 310 311 304 307 304 298 294 291 292 293 286 287 283 283 285 281 282 274 271 273 269 247 259 266 273 280 292 275 255 280 192 276 183 233 252 253 239 248 250 248 243 252 258 250
63 68 71 70 69 67 66 61 65 72 70 57 54 42 31 24 13 19 3 2 11 25 12 12 3 359 352 345 343 338 334 330 331 341 331 328 325 324 325 322 314 311 309 304 306 307 301 296 294 300 302 297 290 289 291 285 280 273 271 261 260 263 252 244 262 269 277 281 285 283 276 264 243 263 233 237 254 252 260 259 253 262 250 244 243
64 68 67 68 63 62 59 54 58 61 67 65 64 53 40 35 17 29 15 12 15 5 9 5 360 353 348 340 335 331 333 330 330 337 323 320 315 311 313 308 303 301 299 300 302 303 298 298 293 298 300 293 288 287 283 278 276 274 271 266 260 263 258 249 242 258 267 278 280 278 267 273 267 253 252 252 248 252 238 255 243 243 246 240 240
67 69 68 68 58 60 58 53 59 55 58 55 58 50 38 29 22 24 16 9 0 4 355 357 356 350 343 333 329 331 323 321 322 318 311 295 290 291 295 296 297 297 294 293 293 293 292 286 290 293 293 290 288 283 283 280 276 273 271 271 264 263 263 252 250 248 258 265 276 280 278 256 271 264 210 255 259 251 256 245 245 246 244 243 244
67 72 71 76 69 62 54 50 47 47 42 39 40 42 39 30 20 5 13 358 356 356 355 345 350 337 332 322 319 314 314 314 311 306 307 314 308 301 298 299 299 298 296 294 294 292 290 289 288 288 287 284 285 285 281 280 280 274 273 273 269 267 266 262 255 256 256 262 269 281 281 278 274 269 222 226 260 269 264 254 265 242 240 255 243
78 81 76 75 68 54 48 47 45 40 38 32 28 37 39 27 14 2 352 6 10 359 350 351 333 332 316 321 321 317 318 319 321 317 316 315 313 315 314 308 303 302 297 294 293 289 285 284 285 283 280 278 281 282 286 283 279 275 273 273 274 272 268 267 260 257 257 263 267 266 278 276 271 279 273 202 243 251 268 287 267 224 224 233 253
82 77 72 67 62 54 46 45 46 41 37 31 26 32 38 25 7 352 10 12 7 1 352 345 329 338 335 339 333 335 334 336 331 328 323 323 326 318 312 307 304 301 297 293 289 286 282 279 278 276 273 274 275 280 281 283 284 282 275 273 276 276 272 272 269 261 261 262 264 272 267 277 278 255 64 178 263 266 219 232 262 265 224 229 230
79 75 70 67 59 54 45 41 44 46 34 29 24 23 32 19 9 10 11 9 2 358 354 353 353 353 352 350 344 341 343 334 332 330 330 324 322 312 306 299 297 297 297 293 288 286 284 278 275 273 269 268 268 269 270 270 278 283 282 278 273 276 278 275 271 268 265 265 270 267 272 271 269 272 264 245 229 253 248 211 248 261 246 238 236
82 79 76 74 65 59 56 46 61 57 40 21 20 15 27 20 21 19 11 6 2 358 359 357 1 354 344 338 337 335 326 317 313 315 313 308 305 296 293 290 288 288 289 290 287 275 271 275 274 271 272 273 273 273 272 269 262 258 270 280 277 273 272 276 272 267 267 267 265 270 270 268 268 260 260 256 243 239 246 218 240 243 175 240 247
83 89 87 86 83 73 63 50 72 66 49 23 8 21 18 17 22 18 12 4 2 357 353 350 346 338 331 324 322 319 313 309 306 305 305 306 306 297 288 287 281 278 278 281 285 289 282 268 266 271 272 270 271 271 270 269 267 265 262 260 259 260 271 273 271 270 265 262 269 267 262 267 267 263 257 266 243 226 234 230 236 218 209 204 238
94 88 89 86 82 82 76 67 59 42 32 18 16 13 14 17 17 11 3 356 348 348 345 331 323 319 315 312 308 303 301 298 301 301 303 303 302 296 288 283 284 279 277 278 280 283 285 285 277 265 260 261 264 268 269 268 267 267 267 266 263 257 249 252 266 273 266 266 264 260 266 261 269 269 266 257 259 239 233 226 224 215 217 223 225
92 81 70 69 61 59 58 55 43 35 23 12 7 10 15 15 11 2 350 332 333 342 328 326 317 313 307 305 300 295 288 290 292 295 297 298 298 297 286 280 281 282 281 277 278 280 281 284 287 277 261 256 260 261 264 268 267 263 260 262 263 259 257 254 251 253 261 260 263 266 262 271 274 270 264 257 249 260 235 226 223 222 223 227 231
79 75 62 47 37 39 51 52 39 24 11 8 8 8 11 8 353 336 322 326 332 321 317 310 304 302 298 292 289 283 283 285 288 291 294 294 294 294 282 283 280 279 280 279 278 279 277 280 285 287 283 267 255 260 265 267 269 270 266 261 259 257 254 251 249 250 249 251 256 263 267 266 265 270 270 267 260 256 251 238 225 226 224 226 227
65 62 58 30 14 24 41 47 35 16 6 5 4 4 357 346 340 322 316 314 317 314 311 312 301 295 295 290 285 285 275 281 287 292 294 296 296 296 284 282 282 281 279 275 273 274 278 277 275 279 283 283 274 262 265 269 273 271 269 267 264 262 260 256 247 243 245 245 249 253 260 264 266 266 268 264 257 256 251 248 236 229 231 236 29
58 52 48 21 11 19 41 46 27 17 2 1 359 351 345 333 321 309 312 306 292 290 291 280 293 299 294 297 301 296 288 285 292 295 298 294 296 295 286 281 284 285 285 284 279 275 273 272 275 278 279 282 279 275 269 268 271 272 272 271 271 268 262 252 246 243 246 247 247 251 256 261 264 266 266 263 259 257 256 259 265 230 208 202 198
59 53 56 15 7 17 34 45 21 15 2 357 347 342 334 322 312 303 317 311 315 317 311 303 297 302 304 302 298 295 295 291 291 295 297 299 301 294 293 288 284 286 288 290 287 284 278 272 271 275 280 280 281 281 280 276 271 270 271 274 274 276 274 269 252 249 249 248 251 252 255 259 262 264 267 267 266 257 247 244 234 216 204 212 204
68 52 44 18 11 29 37 44 24 11 4 344 332 320 307 295 299 325 334 327 326 318 311 309 302 295 298 296 288 291 296 298 297 294 298 303 306 299 295 296 293 294 294 292 294 292 286 284 278 277 278 281 285 288 287 284 275 271 272 273 276 277 277 280 278 260 249 250 251 254 255 257 259 263 267 269 270 267 242 236 242 188 213 211 213
60 38 17 11 27 29 35 40 24 11 347 318 315 309 308 313 315 324 322 312 303 301 307 308 304 297 281 286 296 296 296 302 306 308 310 312 315 305 299 294 298 299 303 301 300 297 295 289 284 281 280 283 287 291 292 290 280 273 273 273 273 273 276 287 285 280 276 268 258 257 258 255 257 257 260 263 262 259 242 242 239 205 215 219 203
45 26 21 25 29 25 16 47 1 339 300 299 297 296 300 322 327 330 322 310 307 312 307 308 309 311 311 299 303 302 304 305 309 314 320 321 321 320 313 310 306 306 305 302 303 300 298 298 293 291 291 294 295 298 300 299 294 287 279 274 272 275 284 287 279 277 279 274 273 264 262 258 253 248 250 254 254 242 240 234 229 217 218 215 195
35 26 16 21 30 26 14 26 319 292 279 281 298 312 325 330 328 332 327 323 324 328 333 327 321 317 318 315 307 306 302 306 309 316 321 322 321 324 314 308 304 303 302 299 296 297 299 298 297 296 298 297 299 301 301 299 298 294 287 280 276 281 286 282 282 281 279 276 273 272 267 259 254 249 247 246 245 243 239 235 226 219 214 213 194
25 355 353 53 54 348 306 283 264 254 278 317 345 343 330 338 334 329 330 338 340 338 336 333 329 322 320 318 317 314 314 311 312 316 320 321 319 318 314 304 303 303 302 295 295 296 294 295 295 295 298 301 301 302 300 299 298 295 288 289 291 291 289 285 283 282 279 276 272 269 269 264 259 255 247 243 240 246 247 232 222 217 215 215 199
337 266 150 148 212 222 240 249 272 287 348 354 2 354 348 358 352 350 353 349 343 340 340 336 330 324 319 317 316 314 315 314 316 319 321 319 318 318 315 311 311 308 303 300 299 299 300 297 295 297 299 299 299 300 300 298 297 287 289 292 291 289 288 283 282 280 276 272 269 267 267 265 262 259 249 237 254 8 352 1 4 69 69 42 69
260 229 196 204 207 214 233 289 357 16 6 5 11 7 0 358 358 352 358 349 342 337 338 337 330 326 323 318 318 318 317 316 317 320 319 319 321 320 319 319 322 322 317 310 311 308 306 302 299 299 298 299 298 298 297 296 292 292 293 293 293 291 285 282 279 276 274 271 267 265 264 261 257 256 232 145 109 73 59 28 43 67 84 72 61
217 194 194 205 208 182 11 23 28 16 11 14 11 360 354 357 355 355 356 344 342 335 329 335 330 320 317 315 316 316 318 321 318 319 318 318 319 318 319 318 316 315 309 300 296 295 295 296 296 297 297 295 293 292 290 286 286 285 284 285 282 278 276 273 275 275 272 268 266 265 264 261 257 252 116 120 117 95 88 73 69 66 80 83 67
187 172 176 49 24 27 28 26 28 16 12 14 11 349 342 342 344 335 339 332 337 334 326 329 324 319 313 315 316 314 315 318 318 319 319 318 318 317 315 313 311 310 307 300 300 300 300 299 297 294 291 289 289 287 287 288 287 285 285 284 279 274 271 272 269 269 270 272 268 264 263 229 106 134 129 133 136 142 133 124 119 101 113 106 87
146 83 45 36 21 30 32 20 13 5 1 357 352 340 332 327 328 328 325 325 324 323 320 323 322 319 317 317 316 314 313 315 318 319 322 322 319 314 312 311 311 311 308 303 303 298 295 293 293 296 295 290 287 284 281 281 281 280 280 276 269 265 264 262 262 264 269 269 269 265 293 100 105 119 158 156 143 139 149 139 126 125 118 108 103
75 48 42 49 35 41 30 15 6 352 348 348 343 337 333 324 320 314 314 314 321 322 323 323 322 319 316 317 316 314 312 314 317 323 323 321 318 318 316 315 316 317 312 308 304 300 297 295 296 289 285 287 287 283 278 276 274 279 281 279 273 269 266 262 257 255 260 266 268 38 108 149 157 170 150 163 143 148 161 149 141 134 138 126 103
56 54 54 50 42 35 18 1 347 343 333 336 321 302 307 309 300 277 255 237 246 300 314 311 307 302 300 307 314 312 312 313 315 317 316 316 316 316 315 315 315 313 312 313 310 304 297 292 284 286 284 287 288 285 284 285 284 280 274 272 271 270 269 265 262 262 263 263 247 210 199 153 165 157 165 147 161 159 160 140 145 137 141 113 125
74 61 62 42 41 20 357 346 338 342 336 331 328 312 305 311 300 298 288 292 311 311 309 309 313 316 312 301 294 299 302 305 311 316 317 318 318 317 314 313 313 313 313 314 311 303 299 297 297 297 299 301 299 296 291 286 283 281 278 270 269 273 279 273 263 265 264 255 232 194 186 173 170 179 173 169 149 160 164 160 155 155 139 136 131
89 72 61 37 18 7 352 333 325 337 338 345 341 336 328 330 306 292 300 319 326 319 315 313 315 318 320 317 317 314 309 310 313 315 316 317 318 318 317 317 317 318 318 317 312 310 308 307 307 304 299 294 287 285 285 286 281 280 282 288 287 282 277 269 265 265 260 239 210 193 176 180 185 182 180 172 165 155 152 148 151 151 147 142 137
90 60 48 17 8 358 329 322 341 6 1 5 355 346 341 329 339 214 256 340 325 322 322 330 335 338 335 328 322 316 317 317 318 318 319 319 319 319 318 318 319 321 322 323 313 310 309 306 301 296 293 288 287 285 284 283 284 285 286 285 284 280 277 276 270 265 249 218 197 189 185 190 187 184 176 166 159 159 156 156 158 150 137 137 138
74 49 24 33 21 336 334 0 15 15 6 356 352 349 343 353 337 331 334 135 325 328 350 355 345 335 329 324 320 314 313 315 318 319 320 320 320 320 318 318 320 323 326 324 312 305 297 295 294 298 298 298 294 291 295 297 297 299 299 297 292 288 282 276 273 260 235 215 201 198 189 183 174 167 166 164 163 161 164 159 152 142 140 130 126
76 93 50 11 356 322 349 18 26 12 353 348 335 339 345 338 331 326 328 333 350 111 140 350 340 335 330 326 323 320 318 318 318 318 318 318 319 320 322 322 322 322 323 316 313 309 309 306 303 300 298 295 303 319 317 313 309 307 305 302 297 295 290 281 270 252 233 211 204 197 177 172 163 164 166 167 166 155 156 159 151 150 153 150 144
62 359 332 317 223 261 347 31 25 354 335 336 331 343 334 331 333 335 334 333 326 325 328 328 332 334 327 323 322 323 323 322 320 319 319 319 320 323 326 322 319 319 316 306 304 302 306 306 303 301 297 312 320 312 307 308 306 303 301 299 299 298 297 285 263 253 230 207 197 187 181 172 174 171 167 165 164 167 167 160 164 159 149 144 140
72 291 274 178 87 34 21 51 325 312 295 301 310 324 321 325 333 327 323 310 314 317 316 319 319 322 320 320 320 323 325 325 324 324 325 326 326 329 323 317 312 310 309 308 306 302 299 296 295 298 318 311 303 303 310 313 314 310 307 304 300 299 299 291 269 249 225 206 198 185 169 168 171 167 166 173 175 171 165 163 157 152 145 141 143
159 226 193 144 141 214 232 267 266 266 295 312 316 315 312 320 322 317 308 307 310 305 305 314 320 320 320 313 312 322 322 323 324 324 325 326 326 323 301 301 302 305 306 305 303 298 297 294 308 316 310 314 322 319 314 307 306 303 302 301 301 299 296 292 274 242 219 198 186 177 178 175 171 172 170 170 168 162 153 144 142 142 143 142 139
200 209 204 201 194 219 235 249 255 316 323 303 307 308 318 318 315 303 306 307 304 307 311 312 314 317 322 323 329 324 322 322 320 318 318 323 323 311 302 302 308 305 304 306 312 317 322 323 322 322 320 313 307 307 307 304 303 303 302 300 295 289 289 286 277 234 204 185 180 176 172 170 169 168 167 168 165 160 154 150 145 137 134 145 146
204 212 208 217 196 188 192 218 293 301 304 306 302 320 317 313 305 302 298 294 295 298 298 304 310 316 317 320 324 322 325 327 333 330 327 326 322 325 325 323 320 321 322 322 321 319 318 321 322 316 311 309 307 303 306 306 303 298 299 298 296 295 292 284 256 204 194 187 179 165 168 163 163 166 166 162 158 157 153 150 150 148 148 153 151
169 206 207 187 164 292 89 261 291 302 285 291 306 314 310 303 294 292 291 290 294 296 298 307 312 312 315 319 321 329 330 326 326 326 324 325 330 331 330 326 327 323 322 320 322 322 319 313 312 310 305 302 306 306 299 296 302 305 302 299 298 297 292 276 239 213 198 178 161 160 163 160 155 153 154 157 155 153 153 153 151 147 141 134 132
168 188 180 224 197 185 358 277 264 262 264 279 296 306 287 279 281 284 284 287 292 296 302 304 303 305 307 314 322 329 327 320 320 321 324 326 326 327 327 326 324 321 320 320 319 318 317 314 310 308 308 308 308 309 311 312 309 306 306 307 303 299 303 307 267 199 167 152 157 154 155 148 154 157 159 149 137 139 133 131 133 134 130 128 121
171 170 200 162 338 111 199 248 257 262 274 289 292 281 274 279 281 281 285 291 296 300 305 302 300 305 307 317 324 329 329 316 317 318 320 320 320 321 320 318 317 316 315 314 316 317 316 314 312 313 315 314 313 312 312 313 315 314 313 313 313 314 317 322 335 138 144 146 143 148 148 149 148 146 132 133 141 139 134 139 141 134 128 122 116
163 196 202 222 222 201 217 241 260 269 284 280 273 271 275 280 276 277 286 289 296 303 304 306 306 308 309 315 323 327 322 316 318 317 314 317 318 318 318 318 319 315 313 311 312 311 307 308 311 314 315 314 314 315 316 315 315 317 318 319 317 316 314 327 352 33 85 118 127 126 132 144 145 135 135 139 138 135 137 137 136 131 129 127 133
190 202 206 212 202 222 236 235 234 252 246 252 257 266 270 269 274 284 285 290 295 298 301 303 306 310 312 318 323 323 318 319 317 318 319 318 317 316 317 315 317 317 316 316 318 316 314 312 314 314 311 311 313 314 312 312 316 318 322 323 323 322 323 331 332 340 123 124 125 128 137 140 132 132 136 140 139 138 139 142 138 134 130 131 130
201 201 210 200 207 217 235 234 224 239 245 252 262 266 270 271 281 279 286 290 296 299 299 300 305 308 311 316 321 321 320 320 320 320 320 320 319 317 316 317 320 320 319 319 320 319 317 320 317 317 318 318 320 322 321 319 322 319 320 324 325 327 330 336 339 14 67 129 133 135 139 139 137 139 140 141 141 141 142 144 140 132 130 134 136
202 197 174 173 206 232 221 234 229 229 235 244 253 265 268 271 272 275 283 287 293 296 296 298 299 302 305 310 314 317 316 317 317 317 316 318 318 318 317 317 317 318 320 322 321 323 324 324 323 321 321 322 324 326 327 327 325 323 322 322 324 320 318 324 350 67 112 134 142 140 137 130 131 140 142 139 137 136 137 138 141 143 142 140 137
192 169 180 206 214 221 224 228 225 234 234 242 243 248 259 264 265 276 281 287 292 294 295 295 298 299 304 307 310 311 313 314 313 314 315 315 315 318 320 321 322 322 324 323 323 323 324 324 323 321 321 324 327 327 330 328 327 326 328 326 322 325 323 331 352 24 61 97 121 136 134 132 131 135 138 139 138 139 139 144 145 141 136 136 137
202 196 205 211 215 225 237 228 234 242 240 239 245 254 266 271 279 280 285 289 290 290 291 292 292 295 301 301 302 302 305 307 307 308 311 313 315 318 321 322 322 322 321 322 324 325 324 325 324 323 326 333 339 340 336 335 334 337 336 335 339 340 340 341 356 12 31 60 88 103 120 124 131 134 140 140 139 140 140 139 133 127 130 131 133
196 200 207 213 219 225 226 235 239 237 241 242 263 273 273 280 278 280 281 283 284 286 288 291 293 295 295 296 299 300 301 305 307 309 311 311 314 317 319 320 320 320 323 324 325 326 326 328 329 329 332 337 339 339 339 340 346 349 350 348 351 352 354 3 4 10 36 54 69 81 94 110 122 128 128 129 130 130 128 129 130 129 128 128 131
200 204 204 217 226 228 237 234 237 241 251 256 256 263 271 276 280 281 281 283 284 285 285 287 290 293 296 298 301 300 303 304 305 305 306 309 313 314 317 319 321 322 324 325 326 325 327 329 332 333 338 342 342 341 340 342 347 352 354 357 4 6 7 14 22 22 27 47 57 83 95 107 108 113 113 117 120 124 126 127 127 131 134 136 135
199 195 212 214 223 231 235 238 247 243 244 252 253 261 268 270 271 278 280 280 281 284 288 289 291 292 293 291 294 297 299 298 297 299 301 306 310 313 315 318 320 322 322 324 326 328 329 331 333 335 337 340 343 345 345 347 353 356 2 7 9 11 14 19 20 34 39 45 58 68 93 106 118 115 114 112 118 120 125 124 130 133 137 135 134